TRANSIT 5B-1 DEB, 2097

Orbit data source: Space-Track

TRANSIT 5B-1 DEB, 2097 is space debris in LEO originally from a launch on Sat, 28 Sep 1963 UTC launched from the Air Force Western Test Range (AFWTR). Debris objects in space refer to the collection of defunct objects orbiting the Earth. Examples of debris include non-operational satellites, rocket bodies, and fragments generated from explosions, collisions, or faulty payload assembly.

Loading next visibility...
Identifier
2097, 1963-038G
Orbit
LEO
Country
Flag of USUS
Related business
Manufacturer
Unknown
Mission
Spacecraft
Bus & Motor
Unknown
Mass
Unknown
Launch date (UTC)
1963-09-28 (62 years ago)
Launch vehicle
Unknown
Launch site
Air Force Western Test Range (AFWTR)
Object type
Payload
Rocket body
Debris
Shape & HBR
Unknown shape, 0.1 m
Radar Cross Section
Small (<0.1 m²)

Expand to show TLE details & history
Last TLE update: 18 hours ago

TLE from 18 hours ago
0 TRANSIT 5B-1 DEB
1 02097U 63038G   25310.56240032  .00001033  00000-0  12341-2 0  9991
2 02097  90.0021 338.1752 0041501 134.5980  17.9256 13.66148387 69228
Epoch: 2025-11-06T13:29Z
TLE epoch observation values (Epoch: 2025-11-06T13:29:51.387Z)
Latitude
27.3665°
Longitude
-90.30677°
Altitude
987.674 km
Speed
7.375 km/s
True Right ascension
10h 32m 42s
True Declination
27° 13' 51"
Sunlit
Object was in daylight at epoch
Visualization orbit readout
Latitude
Unknown
Longitude
Unknown
Altitude
Unknown
Speed
Unknown
Apparent Right ascension
Unknown
Apparent Declination
Unknown
Sunlit
N/A
Visualization observer readout
Local Sidereal Time
03:17:53
Azimuth
Unknown
Elevation
Unknown
Doppler factor
Unknown
Orbital elements
Apogee altitude
1,041.121 km
Perigee altitude
979.794 km
Semi-major axis
7,388.594 km
Eccentricity
0.00415
Inclination
90.0021°
RAAN
338.1752°
Arg. of periapsis
134.598°
True anomaly
18.0727°
Mean anomaly
17.9256°
Eccentric anomaly
17.99908°
Mean motion
3.41744 °/min
Orbital period
105.34 mins
BSTAR
0.0012341
Loading maneuver chart data...
Computing Atmospheric mass density...

Documentation

Showing up to 5 results
|